Year,Month,Day,Hour,Minute,Value (Times are PST for temperature in C)
2016,11,17,00,00,6.50
2016,11,17,00,01,6.50
2016,11,17,00,02,6.50
2016,11,17,00,03,6.50
2016,11,17,00,04,6.50
2016,11,17,00,05,6.50
2016,11,17,00,06,6.50
2016,11,17,00,07,6.50
2016,11,17,00,08,6.50
2016,11,17,00,09,6.50
2016,11,17,00,10,6.50
2016,11,17,00,11,6.50
2016,11,17,00,12,6.50
2016,11,17,00,13,6.40
2016,11,17,00,14,6.50
2016,11,17,00,15,6.40
2016,11,17,00,16,6.40
2016,11,17,00,17,6.40
2016,11,17,00,18,6.40
2016,11,17,00,19,6.40
2016,11,17,00,20,6.40
2016,11,17,00,21,6.40
2016,11,17,00,22,6.40
2016,11,17,00,23,6.40
2016,11,17,00,24,6.40
2016,11,17,00,25,6.40
2016,11,17,00,26,6.30
2016,11,17,00,27,6.30
2016,11,17,00,28,6.30
2016,11,17,00,29,6.30
2016,11,17,00,30,6.30
2016,11,17,00,31,6.30
2016,11,17,00,32,6.20
2016,11,17,00,33,6.20
2016,11,17,00,34,6.20
2016,11,17,00,35,6.20
2016,11,17,00,36,6.20
2016,11,17,00,37,6.20
2016,11,17,00,38,6.20
2016,11,17,00,39,6.10
2016,11,17,00,40,6.10
2016,11,17,00,41,6.10
2016,11,17,00,42,6.10
2016,11,17,00,43,6.10
2016,11,17,00,44,6.10
2016,11,17,00,45,6.10
2016,11,17,00,46,6.10
2016,11,17,00,47,6.10
2016,11,17,00,48,6.10
2016,11,17,00,49,6.10
2016,11,17,00,50,6.10
2016,11,17,00,51,6.10
2016,11,17,00,52,6.10
2016,11,17,00,53,6.10
2016,11,17,00,54,6.10
2016,11,17,00,55,6.10
2016,11,17,00,56,6.10
2016,11,17,00,57,6.10
2016,11,17,00,58,6.10
2016,11,17,00,59,6.10
2016,11,17,01,00,6.10
2016,11,17,01,01,6.10
2016,11,17,01,02,6.10
2016,11,17,01,03,6.10
2016,11,17,01,04,6.10
2016,11,17,01,05,6.10
2016,11,17,01,06,6.10
2016,11,17,01,07,6.10
2016,11,17,01,08,6.10
2016,11,17,01,09,6.00
2016,11,17,01,10,6.00
2016,11,17,01,11,6.00
2016,11,17,01,12,6.00
2016,11,17,01,13,6.00
2016,11,17,01,14,6.00
2016,11,17,01,15,6.00
2016,11,17,01,16,6.00
2016,11,17,01,17,6.00
2016,11,17,01,18,6.00
2016,11,17,01,19,6.00
2016,11,17,01,20,6.00
2016,11,17,01,21,5.90
2016,11,17,01,22,5.90
2016,11,17,01,23,5.90
2016,11,17,01,24,5.90
2016,11,17,01,25,5.90
2016,11,17,01,26,5.90
2016,11,17,01,27,5.80
2016,11,17,01,28,5.80
2016,11,17,01,29,5.80
2016,11,17,01,30,5.80
2016,11,17,01,31,5.70
2016,11,17,01,32,5.70
2016,11,17,01,33,5.70
2016,11,17,01,34,5.70
2016,11,17,01,35,5.70
2016,11,17,01,36,5.60
2016,11,17,01,37,5.60
2016,11,17,01,38,5.60
2016,11,17,01,39,5.60
2016,11,17,01,40,5.60
2016,11,17,01,41,5.60
2016,11,17,01,42,5.50
2016,11,17,01,43,5.50
2016,11,17,01,44,5.50
2016,11,17,01,45,5.50
2016,11,17,01,46,5.50
2016,11,17,01,47,5.50
2016,11,17,01,48,5.50
2016,11,17,01,49,5.50
2016,11,17,01,50,5.50
2016,11,17,01,51,5.50
2016,11,17,01,52,5.40
2016,11,17,01,53,5.40
2016,11,17,01,54,5.40
2016,11,17,01,55,5.40
2016,11,17,01,56,5.40
2016,11,17,01,57,5.40
2016,11,17,01,58,5.30
2016,11,17,01,59,5.30
2016,11,17,02,00,5.30
2016,11,17,02,01,5.30
2016,11,17,02,02,5.30
2016,11,17,02,03,5.30
2016,11,17,02,04,5.30
2016,11,17,02,05,5.30
2016,11,17,02,06,5.30
2016,11,17,02,07,5.30
2016,11,17,02,08,5.30
2016,11,17,02,09,5.30
2016,11,17,02,10,5.30
2016,11,17,02,11,5.30
2016,11,17,02,12,5.40
2016,11,17,02,13,5.40
2016,11,17,02,14,5.40
2016,11,17,02,15,5.40
2016,11,17,02,16,5.40
2016,11,17,02,17,5.40
2016,11,17,02,18,5.40
2016,11,17,02,19,5.40
2016,11,17,02,20,5.40
2016,11,17,02,21,5.40
2016,11,17,02,22,5.40
2016,11,17,02,23,5.40
2016,11,17,02,24,5.40
2016,11,17,02,25,5.40
2016,11,17,02,26,5.40
2016,11,17,02,27,5.40
2016,11,17,02,28,5.40
2016,11,17,02,29,5.40
2016,11,17,02,30,5.40
2016,11,17,02,31,5.40
2016,11,17,02,32,5.40
2016,11,17,02,33,5.40
2016,11,17,02,34,5.40
2016,11,17,02,35,5.40
2016,11,17,02,36,5.40
2016,11,17,02,37,5.40
2016,11,17,02,38,5.40
2016,11,17,02,39,5.40
2016,11,17,02,40,5.40
2016,11,17,02,41,5.40
2016,11,17,02,42,5.40
2016,11,17,02,43,5.40
2016,11,17,02,44,5.40
2016,11,17,02,45,5.40
2016,11,17,02,46,5.30
2016,11,17,02,47,5.30
2016,11,17,02,48,5.30
2016,11,17,02,49,5.30
2016,11,17,02,50,5.30
2016,11,17,02,51,5.30
2016,11,17,02,52,5.30
2016,11,17,02,53,5.30
2016,11,17,02,54,5.20
2016,11,17,02,55,5.20
2016,11,17,02,56,5.20
2016,11,17,02,57,5.20
2016,11,17,02,58,5.20
2016,11,17,02,59,5.20
2016,11,17,03,00,5.20
2016,11,17,03,01,5.20
2016,11,17,03,02,5.10
2016,11,17,03,03,5.10
2016,11,17,03,04,5.10
2016,11,17,03,05,5.10
2016,11,17,03,06,5.10
2016,11,17,03,07,5.10
2016,11,17,03,08,5.10
2016,11,17,03,09,5.10
2016,11,17,03,10,5.10
2016,11,17,03,11,5.10
2016,11,17,03,12,5.10
2016,11,17,03,13,5.10
2016,11,17,03,14,5.10
2016,11,17,03,15,5.10
2016,11,17,03,16,5.20
2016,11,17,03,17,5.20
2016,11,17,03,18,5.20
2016,11,17,03,19,5.30
2016,11,17,03,20,5.30
2016,11,17,03,21,5.30
2016,11,17,03,22,5.30
2016,11,17,03,23,5.30
2016,11,17,03,24,5.30
2016,11,17,03,25,5.30
2016,11,17,03,26,5.30
2016,11,17,03,27,5.30
2016,11,17,03,28,5.30
2016,11,17,03,29,5.30
2016,11,17,03,30,5.30
2016,11,17,03,31,5.30
2016,11,17,03,32,5.20
2016,11,17,03,33,5.20
2016,11,17,03,34,5.10
2016,11,17,03,35,5.10
2016,11,17,03,36,5.20
2016,11,17,03,37,5.20
2016,11,17,03,38,5.20
2016,11,17,03,39,5.30
2016,11,17,03,40,5.30
2016,11,17,03,41,5.30
2016,11,17,03,42,5.30
2016,11,17,03,43,5.40
2016,11,17,03,44,5.40
2016,11,17,03,45,5.40
2016,11,17,03,46,5.40
2016,11,17,03,47,5.40
2016,11,17,03,48,5.40
2016,11,17,03,49,5.40
2016,11,17,03,50,5.40
2016,11,17,03,51,5.40
2016,11,17,03,52,5.40
2016,11,17,03,53,5.30
2016,11,17,03,54,5.30
2016,11,17,03,55,5.30
2016,11,17,03,56,5.30
2016,11,17,03,57,5.30
2016,11,17,03,58,5.30
2016,11,17,03,59,5.30
2016,11,17,04,00,5.30
2016,11,17,04,01,5.30
2016,11,17,04,02,5.30
2016,11,17,04,03,5.30
2016,11,17,04,04,5.40
2016,11,17,04,05,5.40
2016,11,17,04,06,5.40
2016,11,17,04,07,5.40
2016,11,17,04,08,5.40
2016,11,17,04,09,5.40
2016,11,17,04,10,5.40
2016,11,17,04,11,5.40
2016,11,17,04,12,5.40
2016,11,17,04,13,5.30
2016,11,17,04,14,5.30
2016,11,17,04,15,5.30
2016,11,17,04,16,5.30
2016,11,17,04,17,5.30
2016,11,17,04,18,5.20
2016,11,17,04,19,5.20
2016,11,17,04,20,5.20
2016,11,17,04,21,5.20
2016,11,17,04,22,5.10
2016,11,17,04,23,5.10
2016,11,17,04,24,5.10
2016,11,17,04,25,5.10
2016,11,17,04,26,5.00
2016,11,17,04,27,5.00
2016,11,17,04,28,5.00
2016,11,17,04,29,5.00
2016,11,17,04,30,5.00
2016,11,17,04,31,4.90
2016,11,17,04,32,4.90
2016,11,17,04,33,4.90
2016,11,17,04,34,4.90
2016,11,17,04,35,4.90
2016,11,17,04,36,4.80
2016,11,17,04,37,4.80
2016,11,17,04,38,4.80
2016,11,17,04,39,4.80
2016,11,17,04,40,4.80
2016,11,17,04,41,4.80
2016,11,17,04,42,4.80
2016,11,17,04,43,4.80
2016,11,17,04,44,4.80
2016,11,17,04,45,4.80
2016,11,17,04,46,4.80
2016,11,17,08,09,4.60
2016,11,17,08,10,4.60
2016,11,17,08,11,4.70
2016,11,17,08,12,4.70
2016,11,17,08,13,4.70
2016,11,17,08,14,4.70
2016,11,17,08,15,4.80
2016,11,17,08,16,4.80
2016,11,17,08,17,4.80
2016,11,17,08,18,4.90
2016,11,17,08,19,4.90
2016,11,17,08,20,5.00
2016,11,17,08,21,5.00
2016,11,17,08,22,5.00
2016,11,17,08,23,5.10
2016,11,17,08,24,5.10
2016,11,17,08,25,5.10
2016,11,17,08,26,5.20
2016,11,17,08,27,5.20
2016,11,17,08,28,5.20
2016,11,17,08,29,5.20
2016,11,17,08,30,5.30
2016,11,17,08,31,5.30
2016,11,17,08,32,5.30
2016,11,17,08,33,5.30
2016,11,17,08,34,5.40
2016,11,17,08,35,5.40
2016,11,17,08,36,5.50
2016,11,17,08,37,5.50
2016,11,17,08,38,5.60
2016,11,17,08,39,5.60
2016,11,17,08,40,5.70
2016,11,17,08,41,5.70
2016,11,17,08,42,5.70
2016,11,17,08,43,5.70
2016,11,17,08,44,5.70
2016,11,17,08,45,5.70
2016,11,17,08,46,5.80
2016,11,17,08,47,5.80
2016,11,17,08,48,5.80
2016,11,17,08,49,5.90
2016,11,17,08,50,5.90
2016,11,17,08,51,5.90
2016,11,17,08,52,5.90
2016,11,17,08,53,6.00
2016,11,17,08,54,6.00
2016,11,17,08,55,6.10
2016,11,17,08,56,6.10
2016,11,17,08,57,6.20
2016,11,17,08,58,6.20
2016,11,17,08,59,6.20
2016,11,17,09,00,6.20
2016,11,17,09,01,6.30
2016,11,17,09,02,6.30
2016,11,17,09,03,6.30
2016,11,17,09,04,6.40
2016,11,17,09,05,6.40
2016,11,17,09,06,6.40
2016,11,17,09,07,6.50
2016,11,17,09,08,6.50
2016,11,17,09,09,6.50
2016,11,17,09,10,6.60
2016,11,17,09,11,6.60
2016,11,17,09,12,6.60
2016,11,17,09,13,6.70
2016,11,17,09,14,6.70
2016,11,17,09,15,6.70
2016,11,17,09,16,6.80
2016,11,17,09,17,6.80
2016,11,17,09,18,6.80
2016,11,17,09,19,6.90
2016,11,17,09,20,6.90
2016,11,17,09,21,6.90
2016,11,17,09,22,7.00
2016,11,17,09,23,7.00
2016,11,17,09,24,7.10
2016,11,17,09,25,7.10
2016,11,17,09,26,7.10
2016,11,17,09,27,7.10
2016,11,17,09,28,7.10
2016,11,17,09,29,7.20
2016,11,17,09,30,7.20
2016,11,17,09,31,7.20
2016,11,17,09,32,7.20
2016,11,17,09,33,7.20
2016,11,17,09,34,7.20
2016,11,17,09,35,7.30
2016,11,17,09,36,7.30
2016,11,17,09,37,7.30
2016,11,17,09,38,7.30
2016,11,17,09,39,7.40
2016,11,17,09,40,7.40
2016,11,17,09,41,7.40
2016,11,17,09,42,7.40
2016,11,17,09,43,7.50
2016,11,17,09,44,7.50
2016,11,17,09,45,7.50
2016,11,17,09,46,7.60
2016,11,17,09,47,7.60
2016,11,17,09,48,7.60
2016,11,17,09,49,7.70
2016,11,17,09,50,7.70
2016,11,17,09,51,7.80
2016,11,17,09,52,7.80
2016,11,17,09,53,7.80
2016,11,17,09,54,7.90
2016,11,17,09,55,7.90
2016,11,17,09,56,7.90
2016,11,17,09,57,7.90
2016,11,17,09,58,7.90
2016,11,17,09,59,7.90
2016,11,17,10,00,7.90
2016,11,17,10,01,8.00
2016,11,17,10,02,8.00
2016,11,17,10,03,8.00
2016,11,17,10,04,8.00
2016,11,17,10,05,8.00
2016,11,17,10,06,8.10
2016,11,17,10,07,8.10
2016,11,17,10,08,8.10
2016,11,17,10,09,8.10
2016,11,17,10,10,8.10
2016,11,17,10,11,8.10
2016,11,17,10,12,8.10
2016,11,17,10,13,8.10
2016,11,17,10,14,8.10
2016,11,17,10,15,8.10
2016,11,17,10,16,8.10
2016,11,17,10,17,8.10
2016,11,17,10,18,8.10
2016,11,17,10,19,8.10
2016,11,17,10,20,8.10
2016,11,17,10,21,8.20
2016,11,17,10,22,8.20
2016,11,17,10,23,8.20
2016,11,17,10,24,8.30
2016,11,17,10,25,8.30
2016,11,17,10,26,8.30
2016,11,17,10,27,8.30
2016,11,17,10,28,8.30
2016,11,17,10,29,8.30
2016,11,17,10,30,8.40
2016,11,17,10,31,8.30
2016,11,17,10,32,8.30
2016,11,17,10,33,8.30
2016,11,17,10,34,8.30
2016,11,17,10,35,8.30
2016,11,17,10,36,8.30
2016,11,17,10,37,8.30
2016,11,17,10,38,8.30
2016,11,17,10,39,8.40
2016,11,17,10,40,8.50
2016,11,17,10,41,8.50
2016,11,17,10,42,8.50
2016,11,17,10,43,8.50
2016,11,17,10,44,8.40
2016,11,17,10,45,8.40
2016,11,17,10,46,8.40
2016,11,17,10,47,8.40
2016,11,17,10,48,8.50
2016,11,17,10,49,8.50
2016,11,17,10,50,8.60
2016,11,17,10,51,8.60
2016,11,17,10,52,8.70
2016,11,17,10,53,8.70
2016,11,17,10,54,8.70
2016,11,17,10,55,8.70
2016,11,17,10,56,8.70
2016,11,17,10,57,8.70
2016,11,17,10,58,8.80
2016,11,17,10,59,8.80
2016,11,17,11,00,8.80
2016,11,17,11,01,8.90
2016,11,17,11,02,8.90
2016,11,17,11,03,8.90
2016,11,17,11,04,8.90
2016,11,17,11,05,8.90
2016,11,17,11,06,8.90
2016,11,17,11,07,8.90
2016,11,17,11,08,9.00
2016,11,17,11,09,9.00
2016,11,17,11,10,9.10
2016,11,17,11,11,9.10
2016,11,17,11,12,9.10
2016,11,17,11,13,9.20
2016,11,17,11,14,9.20
2016,11,17,11,15,9.20
2016,11,17,11,16,9.20
2016,11,17,11,17,9.20
2016,11,17,11,18,9.20
2016,11,17,11,19,9.20
2016,11,17,11,20,9.30
2016,11,17,11,21,9.30
2016,11,17,11,22,9.30
2016,11,17,11,23,9.30
2016,11,17,11,24,9.30
2016,11,17,11,25,9.30
2016,11,17,11,26,9.30
2016,11,17,11,27,9.30
2016,11,17,11,28,9.20
2016,11,17,11,29,9.20
2016,11,17,11,30,9.20
2016,11,17,11,31,9.20
2016,11,17,11,32,9.20
2016,11,17,11,33,9.10
2016,11,17,11,34,9.10
2016,11,17,11,35,9.10
2016,11,17,11,36,9.10
2016,11,17,11,37,9.10
2016,11,17,11,38,9.10
2016,11,17,11,39,9.00
2016,11,17,11,40,9.10
2016,11,17,11,41,9.10
2016,11,17,11,42,9.10
2016,11,17,11,43,9.10
2016,11,17,11,44,9.10
2016,11,17,11,45,9.10
2016,11,17,11,46,9.00
2016,11,17,11,47,9.00
2016,11,17,11,48,9.10
2016,11,17,11,49,9.10
2016,11,17,11,50,9.10
2016,11,17,11,51,9.20
2016,11,17,11,52,9.30
2016,11,17,11,53,9.30
2016,11,17,11,54,9.30
2016,11,17,11,55,9.30
2016,11,17,11,56,9.30
2016,11,17,11,57,9.30
2016,11,17,11,58,9.30
2016,11,17,11,59,9.30
2016,11,17,12,00,9.30
2016,11,17,12,01,9.20
2016,11,17,12,02,9.20
2016,11,17,12,03,9.30
2016,11,17,12,04,9.20
2016,11,17,12,05,9.20
2016,11,17,12,06,9.20
2016,11,17,12,07,9.20
2016,11,17,12,08,9.20
2016,11,17,12,09,9.20
2016,11,17,12,10,9.20
2016,11,17,12,11,9.20
2016,11,17,12,12,9.20
2016,11,17,12,13,9.30
2016,11,17,12,14,9.30
2016,11,17,12,15,9.30
2016,11,17,12,16,9.30
2016,11,17,12,17,9.30
2016,11,17,12,18,9.30
2016,11,17,12,19,9.30
2016,11,17,12,20,9.20
2016,11,17,12,21,9.20
2016,11,17,12,22,9.20
2016,11,17,12,23,9.10
2016,11,17,12,24,9.10
2016,11,17,12,25,9.10
2016,11,17,12,26,9.10
2016,11,17,12,27,9.10
2016,11,17,12,28,9.10
2016,11,17,12,29,9.10
2016,11,17,12,30,9.10
2016,11,17,12,31,9.10
2016,11,17,12,32,9.10
2016,11,17,12,33,9.10
2016,11,17,12,34,9.20
2016,11,17,12,35,9.20
2016,11,17,12,36,9.20
2016,11,17,12,37,9.20
2016,11,17,12,38,9.10
2016,11,17,12,39,9.10
2016,11,17,12,40,9.10
2016,11,17,12,41,9.10
2016,11,17,12,42,9.10
2016,11,17,12,43,9.10
2016,11,17,12,44,9.00
2016,11,17,12,45,9.00
2016,11,17,12,46,9.00
2016,11,17,12,47,9.00
2016,11,17,12,48,9.00
2016,11,17,12,49,9.00
2016,11,17,12,50,8.90
2016,11,17,12,51,8.90
2016,11,17,12,52,9.00
2016,11,17,12,53,9.00
2016,11,17,12,54,9.00
2016,11,17,12,55,9.00
2016,11,17,12,56,9.00
2016,11,17,12,57,9.00
2016,11,17,12,58,9.00
2016,11,17,12,59,9.00
2016,11,17,13,00,9.00
2016,11,17,13,01,9.10
2016,11,17,13,02,9.10
2016,11,17,13,03,9.10
2016,11,17,13,04,9.10
2016,11,17,13,05,9.10
2016,11,17,13,06,9.10
2016,11,17,13,07,9.10
2016,11,17,13,08,9.10
2016,11,17,13,09,9.10
2016,11,17,13,10,9.10
2016,11,17,13,11,9.10
2016,11,17,13,12,9.10
2016,11,17,13,13,9.10
2016,11,17,13,14,9.10
2016,11,17,13,15,9.10
2016,11,17,13,16,9.10
2016,11,17,13,17,9.10
2016,11,17,13,18,9.10
2016,11,17,13,19,9.10
2016,11,17,13,20,9.10
2016,11,17,13,21,9.10
2016,11,17,13,22,9.20
2016,11,17,13,23,9.20
2016,11,17,13,24,9.20
2016,11,17,13,25,9.20
2016,11,17,13,26,9.20
2016,11,17,13,27,9.30
2016,11,17,13,28,9.30
2016,11,17,13,29,9.30
2016,11,17,13,30,9.30
2016,11,17,13,31,9.30
2016,11,17,13,32,9.30
2016,11,17,13,33,9.30
2016,11,17,13,34,9.40
2016,11,17,13,35,9.40
2016,11,17,13,36,9.30
2016,11,17,13,37,9.40
2016,11,17,13,38,9.40
2016,11,17,13,39,9.40
2016,11,17,13,40,9.40
2016,11,17,13,41,9.40
2016,11,17,13,42,9.40
2016,11,17,13,43,9.40
2016,11,17,13,44,9.30
2016,11,17,13,45,9.30
2016,11,17,13,46,9.30
2016,11,17,13,47,9.30
2016,11,17,13,48,9.30
2016,11,17,13,49,9.30
2016,11,17,13,50,9.30
2016,11,17,13,51,9.30
2016,11,17,13,52,9.30
2016,11,17,13,53,9.30
2016,11,17,13,54,9.30
2016,11,17,13,55,9.30
2016,11,17,13,56,9.20
2016,11,17,13,57,9.20
2016,11,17,13,58,9.30
2016,11,17,13,59,9.30
2016,11,17,14,00,9.20
2016,11,17,14,01,9.20
2016,11,17,14,02,9.20
2016,11,17,14,03,9.20
2016,11,17,14,04,9.20
2016,11,17,14,05,9.20
2016,11,17,14,06,9.20
2016,11,17,14,07,9.30
2016,11,17,14,08,9.30
2016,11,17,14,09,9.30
2016,11,17,14,10,9.30
2016,11,17,14,11,9.30
2016,11,17,14,12,9.30
2016,11,17,14,13,9.30
2016,11,17,14,14,9.30
2016,11,17,14,15,9.30
2016,11,17,14,16,9.40
2016,11,17,14,17,9.40
2016,11,17,14,18,9.40
2016,11,17,14,19,9.40
2016,11,17,14,20,9.40
2016,11,17,14,21,9.40
2016,11,17,14,22,9.40
2016,11,17,14,23,9.40
2016,11,17,14,24,9.30
2016,11,17,14,25,9.30
2016,11,17,14,26,9.30
2016,11,17,14,27,9.30
2016,11,17,14,28,9.30
2016,11,17,14,29,9.30
2016,11,17,14,30,9.30
2016,11,17,14,31,9.30
2016,11,17,14,32,9.40
2016,11,17,14,33,9.40
2016,11,17,14,34,9.40
2016,11,17,14,35,9.40
2016,11,17,14,36,9.40
2016,11,17,14,37,9.40
2016,11,17,14,38,9.40
2016,11,17,14,39,9.40
2016,11,17,14,40,9.40
2016,11,17,14,41,9.40
2016,11,17,14,42,9.50
2016,11,17,14,43,9.50
2016,11,17,14,44,9.50
2016,11,17,14,45,9.50
2016,11,17,14,46,9.50
2016,11,17,14,47,9.50
2016,11,17,14,48,9.50
2016,11,17,14,49,9.50
2016,11,17,14,50,9.50
2016,11,17,14,51,9.40
2016,11,17,14,52,9.50
2016,11,17,14,53,9.50
2016,11,17,14,54,9.50
2016,11,17,14,55,9.50
2016,11,17,14,56,9.40
2016,11,17,14,57,9.40
2016,11,17,14,58,9.40
2016,11,17,14,59,9.40
2016,11,17,15,00,9.40
2016,11,17,15,01,9.40
2016,11,17,15,02,9.40
2016,11,17,15,03,9.30
2016,11,17,15,04,9.30
2016,11,17,15,05,9.30
2016,11,17,15,06,9.30
2016,11,17,15,07,9.30
2016,11,17,15,08,9.30
2016,11,17,15,09,9.30
2016,11,17,15,10,9.20
2016,11,17,15,11,9.20
2016,11,17,15,12,9.20
2016,11,17,15,13,9.20
2016,11,17,15,14,9.20
2016,11,17,15,15,9.20
2016,11,17,15,16,9.20
2016,11,17,15,17,9.20
2016,11,17,15,18,9.20
2016,11,17,15,19,9.20
2016,11,17,15,20,9.20
2016,11,17,15,21,9.20
2016,11,17,15,22,9.20
2016,11,17,15,23,9.20
2016,11,17,15,24,9.20
2016,11,17,15,25,9.10
2016,11,17,15,26,9.10
2016,11,17,15,27,9.10
2016,11,17,15,28,9.10
2016,11,17,15,29,9.10
2016,11,17,15,30,9.20
2016,11,17,15,31,9.20
2016,11,17,15,32,9.20
2016,11,17,15,33,9.20
2016,11,17,15,34,9.20
2016,11,17,15,35,9.20
2016,11,17,15,36,9.20
2016,11,17,15,37,9.20
2016,11,17,15,38,9.20
2016,11,17,15,39,9.20
2016,11,17,15,40,9.20
2016,11,17,15,41,9.20
2016,11,17,15,42,9.20
2016,11,17,15,43,9.20
2016,11,17,15,44,9.20
2016,11,17,15,45,9.20
2016,11,17,15,46,9.20
2016,11,17,15,47,9.10
2016,11,17,15,48,9.10
2016,11,17,15,49,9.10
2016,11,17,15,50,9.10
2016,11,17,15,51,9.10
2016,11,17,15,52,9.10
2016,11,17,15,53,9.10
2016,11,17,15,54,9.10
2016,11,17,15,55,9.10
2016,11,17,15,56,9.10
2016,11,17,15,57,9.10
2016,11,17,15,58,9.10
2016,11,17,15,59,9.10
2016,11,17,16,00,9.10
2016,11,17,16,01,9.10
2016,11,17,16,02,9.10
2016,11,17,16,03,9.10
2016,11,17,16,04,9.10
2016,11,17,16,05,9.10
2016,11,17,16,06,9.10
2016,11,17,16,07,9.10
2016,11,17,16,08,9.10
2016,11,17,16,09,9.00
2016,11,17,16,10,9.00
2016,11,17,16,11,9.00
2016,11,17,16,12,8.90
2016,11,17,16,13,8.90
2016,11,17,16,14,8.90
2016,11,17,16,15,8.80
2016,11,17,16,16,8.80
2016,11,17,16,17,8.80
2016,11,17,16,18,8.80
2016,11,17,16,19,8.70
2016,11,17,16,20,8.70
2016,11,17,16,21,8.70
2016,11,17,16,22,8.70
2016,11,17,16,23,8.60
2016,11,17,16,24,8.60
2016,11,17,16,25,8.60
2016,11,17,16,26,8.50
2016,11,17,16,27,8.50
2016,11,17,16,28,8.40
2016,11,17,16,29,8.40
2016,11,17,16,30,8.40
2016,11,17,16,31,8.40
2016,11,17,16,32,8.40
2016,11,17,16,33,8.30
2016,11,17,16,34,8.30
2016,11,17,16,35,8.30
2016,11,17,16,36,8.30
2016,11,17,16,37,8.30
2016,11,17,16,38,8.20
2016,11,17,16,39,8.20
2016,11,17,16,40,8.20
2016,11,17,16,41,8.20
2016,11,17,16,42,8.20
2016,11,17,16,43,8.10
2016,11,17,16,44,8.10
2016,11,17,16,45,8.10
2016,11,17,16,46,8.10
2016,11,17,16,47,8.10
2016,11,17,16,48,8.10
2016,11,17,16,49,8.10
2016,11,17,16,50,8.00
2016,11,17,16,51,8.00
2016,11,17,16,52,8.00
2016,11,17,16,53,8.00
2016,11,17,16,54,7.90
2016,11,17,16,55,7.90
2016,11,17,16,56,7.90
2016,11,17,16,57,7.90
2016,11,17,16,58,7.90
2016,11,17,16,59,7.90
2016,11,17,17,00,7.80
2016,11,17,17,01,7.80
2016,11,17,17,02,7.80
2016,11,17,17,03,7.80
2016,11,17,17,04,7.80
2016,11,17,17,05,7.70
2016,11,17,17,06,7.70
2016,11,17,17,07,7.70
2016,11,17,17,08,7.70
2016,11,17,17,09,7.70
2016,11,17,17,10,7.70
2016,11,17,17,11,7.70
2016,11,17,17,12,7.70
2016,11,17,17,13,7.60
2016,11,17,17,14,7.60
2016,11,17,17,15,7.60
2016,11,17,17,16,7.60
2016,11,17,17,17,7.60
2016,11,17,17,18,7.60
2016,11,17,17,19,7.60
2016,11,17,17,20,7.60
2016,11,17,17,21,7.50
2016,11,17,17,22,7.50
2016,11,17,17,23,7.50
2016,11,17,17,24,7.50
2016,11,17,17,25,7.50
2016,11,17,17,26,7.50
2016,11,17,17,27,7.50
2016,11,17,17,28,7.50
2016,11,17,17,29,7.50
2016,11,17,17,30,7.50
2016,11,17,17,31,7.50
2016,11,17,17,32,7.50
2016,11,17,17,33,7.50
2016,11,17,17,34,7.50
2016,11,17,17,35,7.50
2016,11,17,17,36,7.50
2016,11,17,17,37,7.50
2016,11,17,17,38,7.50
2016,11,17,17,39,7.50
2016,11,17,17,40,7.50
2016,11,17,17,41,7.50
2016,11,17,17,42,7.50
2016,11,17,17,43,7.50
2016,11,17,17,44,7.40
2016,11,17,17,45,7.40
2016,11,17,17,46,7.40
2016,11,17,17,47,7.40
2016,11,17,17,48,7.40
2016,11,17,17,49,7.40
2016,11,17,17,50,7.40
2016,11,17,17,51,7.40
2016,11,17,17,52,7.40
2016,11,17,17,53,7.40
2016,11,17,17,54,7.40
2016,11,17,17,55,7.40
2016,11,17,17,56,7.40
2016,11,17,17,57,7.40
2016,11,17,17,58,7.40
2016,11,17,17,59,7.40
2016,11,17,18,00,7.40
2016,11,17,18,01,7.40
2016,11,17,18,02,7.40
2016,11,17,18,03,7.40
2016,11,17,18,04,7.40
2016,11,17,18,05,7.40
2016,11,17,18,06,7.40
2016,11,17,18,07,7.40
2016,11,17,18,08,7.40
2016,11,17,18,09,7.40
2016,11,17,18,10,7.40
2016,11,17,18,11,7.40
2016,11,17,18,12,7.40
2016,11,17,18,13,7.40
2016,11,17,18,14,7.40
2016,11,17,18,15,7.40
2016,11,17,18,16,7.40
2016,11,17,18,17,7.40
2016,11,17,18,18,7.40
2016,11,17,18,19,7.40
2016,11,17,18,20,7.40
2016,11,17,18,21,7.40
2016,11,17,18,22,7.40
2016,11,17,18,23,7.40
2016,11,17,18,24,7.40
2016,11,17,18,25,7.40
2016,11,17,18,26,7.40
2016,11,17,18,27,7.40
2016,11,17,18,28,7.40
2016,11,17,18,29,7.40
2016,11,17,18,30,7.40
2016,11,17,18,31,7.40
2016,11,17,18,32,7.40
2016,11,17,18,33,7.40
2016,11,17,18,34,7.40
2016,11,17,18,35,7.40
2016,11,17,18,36,7.50
2016,11,17,18,37,7.40
2016,11,17,18,38,7.50
2016,11,17,18,39,7.50
2016,11,17,18,40,7.50
2016,11,17,18,41,7.50
2016,11,17,18,42,7.50
2016,11,17,18,43,7.50
2016,11,17,18,44,7.50
2016,11,17,18,45,7.50
2016,11,17,18,46,7.50
2016,11,17,18,47,7.40
2016,11,17,18,48,7.40
2016,11,17,18,49,7.40
2016,11,17,18,50,7.40
2016,11,17,18,51,7.40
2016,11,17,18,52,7.40
2016,11,17,18,53,7.40
2016,11,17,18,54,7.40
2016,11,17,18,55,7.40
2016,11,17,18,56,7.40
2016,11,17,18,57,7.50
2016,11,17,18,58,7.50
2016,11,17,18,59,7.50
2016,11,17,19,00,7.50
2016,11,17,19,01,7.50
2016,11,17,19,02,7.50
2016,11,17,19,03,7.50
2016,11,17,19,04,7.50
2016,11,17,19,05,7.60
2016,11,17,19,06,7.60
2016,11,17,19,07,7.60
2016,11,17,19,08,7.60
2016,11,17,19,09,7.60
2016,11,17,19,10,7.70
2016,11,17,19,11,7.70
2016,11,17,19,12,7.70
2016,11,17,19,13,7.70
2016,11,17,19,14,7.70
2016,11,17,19,15,7.70
2016,11,17,19,16,7.70
2016,11,17,19,17,7.70
2016,11,17,19,18,7.70
2016,11,17,19,19,7.70
2016,11,17,19,20,7.70
2016,11,17,19,21,7.70
2016,11,17,19,22,7.70
2016,11,17,19,23,7.80
2016,11,17,19,24,7.80
2016,11,17,19,25,7.80
2016,11,17,19,26,7.80
2016,11,17,19,27,7.80
2016,11,17,19,28,7.80
2016,11,17,19,29,7.80
2016,11,17,19,30,7.90
2016,11,17,19,31,7.90
2016,11,17,19,32,7.90
2016,11,17,19,33,7.90
2016,11,17,19,34,8.00
2016,11,17,19,35,8.00
2016,11,17,19,36,8.00
2016,11,17,19,37,8.10
2016,11,17,19,38,8.10
2016,11,17,19,39,8.10
2016,11,17,19,40,8.10
2016,11,17,19,41,8.10
2016,11,17,19,42,8.10
2016,11,17,19,43,8.10
2016,11,17,19,44,8.10
2016,11,17,19,45,8.10
2016,11,17,19,46,8.10
2016,11,17,19,47,8.10
2016,11,17,19,48,8.10
2016,11,17,19,49,8.10
2016,11,17,19,50,8.10
2016,11,17,19,51,8.10
2016,11,17,19,52,8.10
2016,11,17,19,53,8.10
2016,11,17,19,54,8.10
2016,11,17,19,55,8.10
2016,11,17,19,56,8.00
2016,11,17,19,57,8.00
2016,11,17,19,58,8.00
2016,11,17,19,59,7.90
2016,11,17,20,00,7.90
2016,11,17,20,01,7.90
2016,11,17,20,02,7.90
2016,11,17,20,03,7.90
2016,11,17,20,04,7.90
2016,11,17,20,05,7.80
2016,11,17,20,06,7.80
2016,11,17,20,07,7.80
2016,11,17,20,08,7.80
2016,11,17,20,09,7.70
2016,11,17,20,10,7.70
2016,11,17,20,11,7.60
2016,11,17,20,12,7.60
2016,11,17,20,13,7.60
2016,11,17,20,14,7.50
2016,11,17,20,15,7.50
2016,11,17,20,16,7.50
2016,11,17,20,17,7.50
2016,11,17,20,18,7.50
2016,11,17,20,19,7.50
2016,11,17,20,20,7.50
2016,11,17,20,21,7.50
2016,11,17,20,22,7.50
2016,11,17,20,23,7.50
2016,11,17,20,24,7.50
2016,11,17,20,25,7.60
2016,11,17,20,26,7.60
2016,11,17,20,27,7.60
2016,11,17,20,28,7.60
2016,11,17,20,29,7.70
2016,11,17,20,30,7.70
2016,11,17,20,31,7.70
2016,11,17,20,32,7.70
2016,11,17,20,33,7.70
2016,11,17,20,34,7.70
2016,11,17,20,35,7.80
2016,11,17,20,36,7.80
2016,11,17,20,37,7.80
2016,11,17,20,38,7.90
2016,11,17,20,39,7.90
2016,11,17,20,40,7.90
2016,11,17,20,41,7.90
2016,11,17,20,42,7.90
2016,11,17,20,43,7.90
2016,11,17,20,44,7.90
2016,11,17,20,45,7.90
2016,11,17,20,46,7.90
2016,11,17,20,47,7.90
2016,11,17,20,48,8.00
2016,11,17,20,49,8.00
2016,11,17,20,50,8.00
2016,11,17,20,51,8.00
2016,11,17,20,52,8.00
2016,11,17,20,53,8.00
2016,11,17,20,54,8.10
2016,11,17,20,55,8.10
2016,11,17,20,56,8.10
2016,11,17,20,57,8.10
2016,11,17,20,58,8.10
2016,11,17,20,59,8.20
2016,11,17,21,00,8.20
2016,11,17,21,01,8.20
2016,11,17,21,02,8.20
2016,11,17,21,03,8.20
2016,11,17,21,04,8.20
2016,11,17,21,05,8.20
2016,11,17,21,06,8.20
2016,11,17,21,07,8.20
2016,11,17,21,08,8.20
2016,11,17,21,09,8.20
2016,11,17,21,10,8.20
2016,11,17,21,11,8.30
2016,11,17,21,12,8.30
2016,11,17,21,13,8.30
2016,11,17,21,14,8.30
2016,11,17,21,15,8.30
2016,11,17,21,16,8.30
2016,11,17,21,17,8.30
2016,11,17,21,18,8.30
2016,11,17,21,19,8.30
2016,11,17,21,20,8.30
2016,11,17,21,21,8.30
2016,11,17,21,22,8.30
2016,11,17,21,23,8.30
2016,11,17,21,24,8.30
2016,11,17,21,25,8.30
2016,11,17,21,26,8.30
2016,11,17,21,27,8.30
2016,11,17,21,28,8.30